This demonstration page uses our WeatherBlox Daily Observations layout. Learn more.

Hourly Observations for August 26, 2020

Temp ( °F °C ) Dew Point ( °F °C ) Humidity (%) Winds ( mph kmh ) Pressure ( in mb ) Visibility ( mi km ) Precip ( " mm )
12:15 am 00:15 Clear 73 23 68 20 83 83 NNW 9 15 29.97 1015 10 16.0934 0 0
12:35 am 00:35 Clear 73 23 68 20 83 83 NNW 8 13 29.99 1015 10 16.0934 0 0
12:55 am 00:55 Clear 73 23 66 19 78 78 NW 8 13 29.99 1015 10 16.0934 0 0
1:15 am 01:15 Clear 73 23 66 19 78 78 N 3 6 30 1016 10 16.0934 0 0
1:35 am 01:35 Clear 73 23 66 19 78 78 Calm 30 1016 10 16.0934 0 0
1:55 am 01:55 Clear 72 22 66 19 83 83 Calm 30 1016 10 16.0934 0 0
2:15 am 02:15 Clear 70 21 66 19 88 88 WNW 3 6 30 1016 10 16.0934 0 0
2:35 am 02:35 Clear 68 20 66 19 94 94 NW 6 9 30 1016 10 16.0934 0 0
2:55 am 02:55 Clear 70 21 64 18 83 83 NW 6 9 30 1016 10 16.0934 0 0
3:15 am 03:15 Clear 68 20 64 18 88 88 NW 5 7 30 1016 10 16.0934 0 0
3:35 am 03:35 Clear 68 20 64 18 88 88 W 3 6 30 1016 10 16.0934 0 0
3:55 am 03:55 Clear 68 20 64 18 88 88 W 3 6 30 1016 10 16.0934 0 0
4:15 am 04:15 Clear 68 20 64 18 88 88 WSW 3 6 30 1016 10 16.0934 0 0
4:35 am 04:35 Clear 68 20 64 18 88 88 WSW 3 6 30 1016 10 16.0934 0 0
4:55 am 04:55 Clear 68 20 64 18 88 88 WSW 5 7 30.01 1016 10 16.0934 0 0
5:15 am 05:15 Clear 68 20 64 18 88 88 W 5 7 30.01 1016 10 16.0934 0 0
5:35 am 05:35 Clear 66 19 64 18 94 94 WSW 5 7 30.02 1017 10 16.0934 0 0
5:55 am 05:55 Clear 66 19 64 18 94 94 WSW 5 7 30.02 1017 10 16.0934 0 0
6:15 am 06:15 Clear 64 18 63 17 94 94 W 7 11 30.03 1017 10 16.0934 0 0
6:35 am 06:35 Sunny 64 18 63 17 94 94 W 6 9 30.04 1017 10 16.0934 0 0
6:55 am 06:55 Sunny 64 18 63 17 94 94 WNW 5 7 30.04 1017 10 16.0934 0 0
7:15 am 07:15 Sunny 64 18 63 17 94 94 NW 3 6 30.05 1018 10 16.0934 0 0
7:35 am 07:35 Sunny 68 20 63 17 83 83 Calm 30.05 1018 10 16.0934 0 0
7:55 am 07:55 Sunny 68 20 63 17 83 83 Calm 30.06 1018 10 16.0934 0 0
8:15 am 08:15 Sunny 70 21 64 18 83 83 Calm 30.06 1018 10 16.0934 0 0
8:35 am 08:35 Sunny 72 22 64 18 78 78 Calm 30.07 1018 10 16.0934 0 0
8:55 am 08:55 Sunny 72 22 64 18 78 78 NNW 3 6 30.07 1018 10 16.0934 0 0
9:15 am 09:15 Sunny 72 22 63 17 73 73 NNW 3 6 30.08 1019 10 16.0934 0 0
9:35 am 09:35 Sunny 73 23 63 17 69 69 WNW 6 9 30.08 1019 10 16.0934 0 0
9:55 am 09:55 Sunny 73 23 63 17 69 69 NNW 8 13 30.07 1018 10 16.0934 0 0
10:15 am 10:15 Sunny 75 24 63 17 65 65 WNW 9 15 30.08 1018 10 16.0934 0 0
10:35 am 10:35 Sunny 77 25 63 17 61 61 WNW 9 15 30.07 1018 10 16.0934 0 0
10:55 am 10:55 Sunny 77 25 63 17 61 61 WNW 6 9 30.06 1018 10 16.0934 0 0
11:15 am 11:15 Sunny 77 25 63 17 61 61 NW 9 15 30.06 1018 10 16.0934 0 0
11:35 am 11:35 Sunny 79 26 63 17 58 58 NNW 6 9 30.06 1018 10 16.0934 0 0
11:55 am 11:55 Sunny 79 26 64 18 61 61 WNW 9 15 30.06 1018 10 16.0934 0 0
12:15 pm 12:15 Sunny 81 27 63 17 54 54 NNW 8 13 30.06 1018 10 16.0934 0 0
12:35 pm 12:35 Sunny 81 27 63 17 54 54 NNW 7 11 30.05 1018 10 16.0934 0 0
12:55 pm 12:55 Sunny 81 27 64 18 58 58 WNW 3 6 30.04 1017 10 16.0934 0 0
1:15 pm 13:15 Sunny 81 27 63 17 54 54 NW 9 15 30.03 1017 10 16.0934 0 0
1:35 pm 13:35 Sunny 82 28 63 17 51 51 NW 5 7 30.02 1017 10 16.0934 0 0
1:55 pm 13:55 Sunny 82 28 63 17 51 51 W 3 6 30.02 1017 10 16.0934 0 0
2:15 pm 14:15 Sunny 84 29 64 18 51 51 W 9 15 30.01 1016 10 16.0934 0 0
2:35 pm 14:35 Sunny 84 29 64 18 51 51 WSW 8 13 30.01 1016 10 16.0934 0 0
2:55 pm 14:55 Sunny 84 29 64 18 51 51 WNW 13 20 30.02 1017 10 16.0934 0 0
3:15 pm 15:15 Sunny 84 29 64 18 51 51 WNW 8 13 30.01 1016 10 16.0934 0 0
3:35 pm 15:35 Sunny 86 30 64 18 49 49 W 7 11 30 1016 10 16.0934 0 0
3:55 pm 15:55 Partly Cloudy 86 30 64 18 49 49 WNW 14 22 30 1016 10 16.0934 0 0
4:15 pm 16:15 Partly Cloudy 84 29 63 17 48 48 WNW 8 13 29.99 1016 10 16.0934 0 0
4:35 pm 16:35 Partly Cloudy 86 30 63 17 46 46 WNW 9 15 29.98 1015 10 16.0934 0 0
4:55 pm 16:55 Partly Cloudy 84 29 64 18 51 51 WSW 6 9 29.97 1015 10 16.0934 0 0
5:15 pm 17:15 Partly Cloudy 86 30 64 18 49 49 WSW 6 9 29.96 1014 10 16.0934 0 0
5:35 pm 17:35 Sunny 86 30 64 18 49 49 WSW 7 11 29.95 1014 10 16.0934 0 0
5:55 pm 17:55 Partly Cloudy 82 28 66 19 58 58 SW 6 9 29.95 1014 10 16.0934 0 0
6:15 pm 18:15 Partly Cloudy 84 29 68 20 58 58 SW 7 11 29.95 1014 10 16.0934 0 0
6:35 pm 18:35 Mostly Cloudy 82 28 68 20 62 62 SW 6 9 29.94 1014 10 16.0934 0 0
6:55 pm 18:55 Mostly Cloudy 82 28 68 20 62 62 SW 5 7 29.95 1014 10 16.0934 0 0
7:15 pm 19:15 Mostly Cloudy 82 28 68 20 62 62 SSW 3 6 29.95 1014 10 16.0934 0 0
7:35 pm 19:35 Mostly Cloudy 81 27 68 20 66 66 SSW 3 6 29.95 1014 10 16.0934 0 0
7:55 pm 19:55 Partly Cloudy 79 26 68 20 70 70 SSW 3 6 29.95 1014 10 16.0934 0 0
8:15 pm 20:15 Clear 79 26 68 20 70 70 SW 5 7 29.95 1014 10 16.0934 0 0
8:35 pm 20:35 Clear 79 26 68 20 70 70 SW 5 7 29.95 1014 10 16.0934 0 0
8:55 pm 20:55 Clear 77 25 68 20 74 74 Calm 29.95 1014 10 16.0934 0 0
9:15 pm 21:15 Clear 77 25 68 20 74 74 WSW 5 7 29.96 1015 10 16.0934 0 0
9:35 pm 21:35 Clear 77 25 68 20 74 74 SW 5 7 29.96 1015 10 16.0934 0 0
9:55 pm 21:55 Clear 75 24 68 20 78 78 SSW 5 7 29.97 1015 10 16.0934 0 0
10:15 pm 22:15 Clear 73 23 68 20 83 83 SSW 6 9 29.97 1015 10 16.0934 0 0
10:35 pm 22:35 Clear 73 23 68 20 83 83 SW 5 7 29.97 1015 10 16.0934 0 0
10:55 pm 22:55 Clear 73 23 68 20 83 83 SW 6 9 29.97 1015 10 16.0934 0 0
11:15 pm 23:15 Clear 73 23 68 20 83 83 SSW 7 11 29.97 1015 10 16.0934 0 0
11:35 pm 23:35 Clear 73 23 68 20 83 83 SW 6 9 29.97 1015 10 16.0934 0 0
11:55 pm 23:55 Clear 73 23 68 20 83 83 WSW 8 13 29.97 1015 10 16.0934 0 0

Powered by AerisWeather